Location: Waco, TX
(31.5480°N, 97.1670°W)
Time: 00:59:44
(UTC-06:00)

ISS - Pass Details

Date: 20 January 2018
Orbit: 402 x 407 km, 51.6° (Epoch: 21 January)

Event Time Altitude Azimuth Distance (km) Brightness Sun altitude
Rises 19:57:59 0° 209° (SSW) 2,296 0.5 -26.5°
Enters shadow 19:59:50 - 202° (SSW) 1,556 -0.5 -26.9°
Reaches altitude 10° 20:00:07 10° 200° (SSW) 1,442 - -27.0°
Maximum altitude 20:03:09 38° 131° (SE) 627 - -27.6°
Drops below altitude 10° 20:06:12 10° 61° (ENE) 1,450 - -28.2°
Sets 20:08:21 0° 53° (NE) 2,312 - -28.7°
